OH6GKW Weather Reports


time (UTC)temp
F
wind
direction
speed
knots
gust
knots
rain 1hr
in
rain 24hr
in
rain mn
in
humidity
%
barometer
mb
20260906091333 48 340 3.5 0.0 0.00 0.00 0.00 77 1006.5
20260906090848 48 322 2.6 0.0 0.00 0.00 0.00 77 1006.5
20260906090342 48 347 1.7 0.0 0.00 0.00 0.00 75 1006.5
20260906085836 48 315 1.7 0.0 0.00 0.00 0.00 75 1006.4
20260906085351 48 4 1.7 0.0 0.00 0.00 0.00 74 1006.4
20260906084842 48 320 1.7 0.0 0.00 0.00 0.00 74 1006.4
20260906084334 48 5 1.7 0.0 0.00 0.00 0.00 75 1006.2
20260906083846 48 346 1.7 0.0 0.00 0.00 0.00 75 1006.2
20260906083343 48 8 0.9 0.0 0.00 0.00 0.00 78 1006.2
20260906082832 48 4 1.7 0.0 0.00 0.00 0.00 77 1005.9
20260906082355 48 12 1.7 0.0 0.00 0.00 0.00 76 1005.9
20260906081846 48 354 1.7 0.0 0.00 0.00 0.00 76 1005.9
20260906081339 48 1 2.6 0.0 0.00 0.00 0.00 76 1005.9
20260906080847 48 306 2.6 0.0 0.00 0.00 0.00 74 1005.9
20260906080344 48 333 1.7 0.0 0.00 0.00 0.00 72 1005.9
20260906075833 48 34 1.7 0.0 0.00 0.00 0.00 73 1005.7
20260906075341 48 21 2.6 0.0 0.00 0.00 0.00 73 1005.7
20260906074833 48 22 3.5 0.0 0.00 0.00 0.00 75 1005.7
20260906074337 48 350 2.6 0.0 0.00 0.00 0.00 74 1005.6
20260906073850 48 343 2.6 0.0 0.00 0.00 0.00 75 1005.6
20260906073342 48 331 2.6 0.0 0.00 0.00 0.00 75 1005.6
20260906072849 48 323 2.6 0.0 0.00 0.00 0.00 76 1005.4
20260906071846 48 313 3.5 0.0 0.00 0.00 0.00 75 1005.4
20260906071338 48 344 2.6 0.0 0.00 0.00 0.00 75 1005.1
20260906070848 48 22 1.7 0.0 0.00 0.00 0.00 78 1005.1
20260906070343 48 5 1.7 0.0 0.00 0.00 0.00 80 1005.1
20260906065832 48 346 1.7 0.0 0.00 0.00 0.00 79 1004.8
20260906065356 48 12 1.7 0.0 0.00 0.00 0.00 80 1004.8
20260906064850 48 45 1.7 0.0 0.00 0.00 0.00 79 1004.8
20260906064349 48 1 1.7 0.0 0.00 0.00 0.00 79 1004.7
20260906063840 48 292 1.7 0.0 0.00 0.00 0.00 80 1004.7
20260906063334 48 38 2.6 0.0 0.00 0.00 0.00 80 1004.7
20260906062840 48 344 2.6 0.0 0.00 0.00 0.00 79 1004.5
20260906062333 48 4 2.6 0.0 0.00 0.00 0.00 80 1004.5
20260906061832 48 300 0.9 0.0 0.00 0.00 0.00 80 1004.5
20260906061345 48 14 0.9 0.0 0.00 0.00 0.00 80 1004.3
20260906060838 48 63 0.9 0.0 0.00 0.00 0.00 80 1004.3
20260906060335 48 307 0.9 0.0 0.00 0.00 0.00 80 1004.3
20260906055857 48 353 1.7 0.0 0.00 0.00 0.00 79 1004.2
20260906055350 48 3 1.7 0.0 0.00 0.00 0.00 78 1004.2
20260906054842 48 343 0.9 0.0 0.00 0.00 0.00 78 1004.2
20260906054337 47 329 0.9 0.0 0.00 0.00 0.00 77 1004.1
20260906053844 47 358 1.7 0.0 0.00 0.00 0.00 77 1004.1
20260906053342 47 357 2.6 0.0 0.00 0.00 0.00 78 1004.1
20260906052833 47 333 2.6 0.0 0.00 0.00 0.00 77 1004.0
20260906052345 47 315 1.7 0.0 0.00 0.00 0.00 78 1004.0
20260906051837 47 334 1.7 0.0 0.00 0.00 0.00 78 1004.0
20260906051332 48 360 0.9 0.0 0.00 0.00 0.00 80 1003.8
20260906050855 48 55 1.7 0.0 0.00 0.00 0.00 80 1003.8
20260906050350 48 330 1.7 0.0 0.00 0.00 0.00 80 1003.8
20260906045843 48 24 1.7 0.0 0.00 0.00 0.00 79 1003.7
20260906045340 48 334 0.9 0.0 0.00 0.00 0.00 82 1003.7
20260906044847 47 340 1.7 0.0 0.00 0.00 0.00 81 1003.7
20260906044343 47 41 1.7 0.0 0.00 0.00 0.00 81 1003.6
20260906043835 47 323 1.7 0.0 0.00 0.00 0.00 80 1003.6
20260906043350 47 18 1.7 0.0 0.00 0.00 0.00 79 1003.6
20260906042839 47 337 0.9 0.0 0.00 0.00 0.00 78 1003.4
20260906042335 47 333 0.9 0.0 0.00 0.00 0.00 78 1003.4
20260906041827 47 58 0.9 0.0 0.00 0.00 0.00 78 1003.4
20260906041356 47 333 0.9 0.0 0.00 0.00 0.00 78 1003.3
20260906040850 47 32 1.7 0.0 0.00 0.00 0.00 78 1003.3
20260906040345 47 360 1.7 0.0 0.00 0.00 0.00 78 1003.3
20260906035829 47 351 1.7 0.0 0.00 0.00 0.00 79 1003.2
20260906035342 47 8 0.9 0.0 0.00 0.00 0.00 81 1003.2
20260906034834 47 17 0.9 0.0 0.00 0.00 0.00 80 1003.2
20260906034331 47 65 0.9 0.0 0.00 0.00 0.00 79 1003.1
20260906033855 47 344 0.9 0.0 0.00 0.00 0.00 79 1003.1
20260906033353 47 312 0.9 0.0 0.00 0.00 0.00 79 1003.1
20260906032846 48 21 1.7 0.0 0.00 0.00 0.00 79 1003.0
20260906032345 48 339 1.7 0.0 0.00 0.00 0.00 79 1003.0
20260906031839 48 353 1.7 0.0 0.00 0.00 0.00 80 1003.0
20260906031331 48 355 0.9 0.0 0.00 0.00 0.00 78 1002.7
20260906030839 48 353 1.7 0.0 0.00 0.00 0.00 78 1002.7
20260906030337 48 11 1.7 0.0 0.00 0.00 0.00 79 1002.7
20260906025848 48 15 1.7 0.0 0.00 0.00 0.00 79 1002.7
20260906025340 48 320 1.7 0.0 0.00 0.00 0.00 79 1002.7
20260906024831 48 343 0.9 0.0 0.00 0.00 0.00 79 1002.7
20260906024356 48 357 0.9 0.0 0.00 0.00 0.00 79 1002.5
20260906023847 48 315 0.9 0.0 0.00 0.00 0.00 79 1002.5
20260906023343 48 346 1.7 0.0 0.00 0.00 0.00 79 1002.5
20260906022833 49 343 2.6 0.0 0.00 0.00 0.00 78 1002.3
20260906022348 49 337 2.6 0.0 0.00 0.00 0.00 78 1002.3
20260906021834 49 302 2.6 0.0 0.00 0.00 0.00 79 1002.3
20260906021331 49 340 0.9 0.0 0.00 0.00 0.00 80 1002.2
20260906020843 49 5 0.9 0.0 0.00 0.00 0.00 80 1002.2
20260906020350 49 8 0.9 0.0 0.00 0.00 0.00 80 1002.2
20260906015842 49 354 2.6 0.0 0.00 0.00 0.00 80 1002.0
20260906015334 49 10 2.6 0.0 0.00 0.00 0.00 79 1002.0
20260906014830 49 351 0.9 0.0 0.00 0.00 0.00 79 1002.0
20260906014326 49 354 0.9 0.0 0.00 0.00 0.00 81 1001.9
20260906013842 49 324 0.9 0.0 0.00 0.00 0.00 80 1001.9
20260906013337 49 8 0.9 0.0 0.00 0.00 0.00 80 1001.9
20260906012827 50 347 1.7 0.0 0.00 0.00 0.00 80 1001.7
20260906012338 50 346 1.7 0.0 0.00 0.00 0.00 80 1001.7
20260906011830 50 350 1.7 0.0 0.00 0.00 0.00 80 1001.7
20260906011354 50 11 1.7 0.0 0.00 0.00 0.00 80 1001.7
20260906010850 49 329 0.9 0.0 0.00 0.00 0.00 80 1001.7
20260906010345 49 29 0.0 0.0 0.00 0.00 0.00 82 1001.7
20260906005835 49 4 0.0 0.0 0.00 0.00 0.00 82 1001.6
20260906005348 49 15 0.0 0.0 0.00 0.00 0.00 82 1001.6
20260906004847 49 8 0.9 0.0 0.00 0.00 0.00 82 1001.6
20260906004339 49 353 0.9 0.0 0.00 0.00 0.00 82 1001.5
20260906003831 49 353 0.0 0.0 0.00 0.00 0.00 83 1001.5
20260906003342 49 348 0.9 0.0 0.00 0.00 0.00 82 1001.5
20260906002832 49 347 0.9 0.0 0.00 0.00 0.00 79 1001.3
20260906002340 49 333 0.9 0.0 0.00 0.00 0.00 82 1001.3
20260906001831 49 14 0.9 0.0 0.00 0.00 0.00 82 1001.3
20260906001343 49 327 0.0 0.0 0.00 0.00 0.00 83 1001.2
20260906000835 49 17 0.9 0.0 0.00 0.00 0.00 83 1001.2
20260906000330 49 344 0.9 0.0 0.00 0.00 0.00 82 1001.2
20260905235843 49 354 0.9 0.0 0.00 0.00 0.00 82 1001.2
20260905235337 49 3 0.9 0.0 0.00 0.00 0.00 81 1001.2
20260905234829 49 329 0.9 0.0 0.00 0.00 0.00 82 1001.2
20260905234350 49 323 0.9 0.0 0.00 0.00 0.00 83 1001.2
20260905233842 49 329 0.9 0.0 0.00 0.00 0.00 84 1001.2
20260905233344 49 343 0.9 0.0 0.00 0.00 0.00 84 1001.2
20260905232839 50 327 0.9 0.0 0.00 0.00 0.00 85 1001.2
20260905232335 50 292 0.0 0.0 0.00 0.00 0.00 84 1001.2
20260905231832 50 330 0.0 0.0 0.00 0.00 0.00 84 1001.2
20260905231332 50 358 0.9 0.0 0.00 0.00 0.00 85 1001.1
20260905230848 50 4 1.7 0.0 0.00 0.00 0.00 85 1001.1
20260905230346 50 329 2.6 0.0 0.00 0.00 0.00 84 1001.1
20260905225836 50 312 1.7 0.0 0.00 0.00 0.00 84 1001.1
20260905225356 50 327 1.7 0.0 0.00 0.00 0.00 84 1001.1
20260905224847 50 327 0.9 0.0 0.00 0.00 0.00 84 1001.1
20260905224343 50 347 0.9 0.0 0.00 0.00 0.00 85 1001.0
20260905223854 50 322 0.9 0.0 0.00 0.00 0.00 86 1001.0
20260905223349 50 12 0.9 0.0 0.00 0.00 0.00 86 1001.0
20260905222843 50 317 0.0 0.0 0.00 0.00 0.00 85 1000.9
20260905222340 50 22 0.9 0.0 0.00 0.00 0.00 84 1000.9
20260905221831 50 331 0.9 0.0 0.00 0.00 0.00 85 1000.9
20260905221345 50 327 0.9 0.0 0.00 0.00 0.00 85 1000.8
20260905220843 50 339 0.0 0.0 0.00 0.00 0.00 87 1000.8
20260905220338 50 354 0.9 0.0 0.00 0.00 0.00 88 1000.8
20260905215856 50 354 0.9 0.0 0.00 0.00 0.00 88 1000.6
20260905215351 50 334 0.9 0.0 0.00 0.00 0.00 89 1000.6
20260905214843 50 21 0.9 0.0 0.00 0.00 0.00 90 1000.6
20260905214338 50 1 0.0 0.0 0.00 0.00 0.00 90 1000.5
20260905213829 50 309 0.0 0.0 0.00 0.00 0.00 90 1000.5
20260905213346 50 320 0.9 0.0 0.00 0.00 0.00 89 1000.5
20260905212839 50 4 0.9 0.0 0.00 0.00 0.00 89 1000.5
20260905212332 50 309 0.9 0.0 0.00 0.00 0.00 89 1000.5
20260905211833 50 14 1.7 0.0 0.00 0.00 0.00 89 1000.5
20260905211347 50 350 0.9 0.0 0.00 0.00 0.00 89 1000.3
20260905210834 50 21 0.0 0.0 0.00 0.00 0.00 91 1000.3
20260905210341 50 8 0.0 0.0 0.00 0.00 0.00 92 1000.3
20260905205847 50 31 0.0 0.0 0.00 0.00 0.19 92 1000.2
20260905205340 50 31 0.0 0.0 0.00 0.00 0.19 92 1000.2
20260905204833 50 31 0.0 0.0 0.00 0.00 0.19 92 1000.2
20260905204346 50 339 0.0 0.0 0.00 0.00 0.19 93 1000.1
20260905203837 50 38 0.0 0.0 0.00 0.00 0.19 93 1000.1
20260905203332 49 343 0.0 0.0 0.00 0.00 0.19 94 1000.1
20260905202854 49 5 0.0 0.0 0.00 0.00 0.19 95 999.8
20260905202351 49 10 0.0 0.0 0.00 0.00 0.19 97 999.8
20260905201842 49 53 0.0 0.0 0.00 0.00 0.19 98 999.8
20260905201338 49 53 0.0 0.0 0.00 0.00 0.19 98 999.7
20260905200830 49 53 0.0 0.0 0.00 0.00 0.19 98 999.7
20260905200346 49 53 0.0 0.0 0.00 0.00 0.19 97 999.7
20260905195836 49 53 0.0 0.0 0.00 0.00 0.19 97 999.7
20260905195329 49 53 0.0 0.0 0.00 0.00 0.19 97 999.7
20260905194841 49 55 0.0 0.0 0.00 0.00 0.19 97 999.7
20260905194334 49 29 0.0 0.0 0.00 0.00 0.19 97 999.6
20260905193858 49 329 0.0 0.0 0.00 0.00 0.19 97 999.6
20260905193333 49 347 0.0 0.0 0.00 0.00 0.19 98 999.6
20260905192838 49 18 0.0 0.0 0.00 0.00 0.19 98 999.7
20260905192335 49 18 0.0 0.0 0.00 0.00 0.19 98 999.7
20260905191831 49 35 0.9 0.0 0.00 0.00 0.19 98 999.7
20260905191347 49 28 0.0 0.0 0.00 0.00 0.19 98 999.6
20260905190839 49 66 0.0 0.0 0.00 0.00 0.19 98 999.6
20260905190334 49 55 0.0 0.0 0.00 0.00 0.19 98 999.6
20260905185855 49 53 0.0 0.0 0.00 0.00 0.19 98 999.5
20260905185352 49 360 0.0 0.0 0.00 0.00 0.19 98 999.5
20260905184844 49 360 0.0 0.0 0.00 0.00 0.19 98 999.5
20260905184341 49 360 0.0 0.0 0.00 0.00 0.19 98 999.5
20260905183832 49 11 0.0 0.0 0.00 0.00 0.19 98 999.5
20260905183343 49 65 0.0 0.0 0.00 0.00 0.19 98 999.5
20260905182838 49 100 0.0 0.0 0.00 0.00 0.19 98 999.4
20260905182334 49 39 0.0 0.0 0.00 0.00 0.19 98 999.4
20260905181846 49 351 0.0 0.0 0.00 0.00 0.19 98 999.4
20260905181339 49 43 0.0 0.0 0.00 0.00 0.19 98 999.2
20260905180831 49 55 0.0 0.0 0.00 0.00 0.19 98 999.2
20260905180341 49 55 0.0 0.0 0.00 0.00 0.19 98 999.2
20260905175829 49 55 0.0 0.0 0.00 0.00 0.19 98 999.1
20260905175341 49 14 0.9 0.0 0.00 0.00 0.19 98 999.1
20260905174836 49 31 0.9 0.0 0.00 0.00 0.19 98 999.1
20260905174343 49 350 0.0 0.0 0.00 0.00 0.18 98 999.0
20260905173834 49 39 0.0 0.0 0.00 0.00 0.18 98 999.0
20260905173401 49 36 0.0 0.0 0.00 0.00 0.18 98 999.0
20260905172851 49 18 0.0 0.0 0.00 0.00 0.18 98 998.8
20260905172344 49 357 0.0 0.0 0.00 0.00 0.18 98 998.8
20260905171836 49 357 0.0 0.0 0.00 0.00 0.18 98 998.8
20260905171348 49 58 0.0 0.0 0.00 0.00 0.18 98 998.6
20260905170839 49 55 0.0 0.0 0.00 0.00 0.18 98 998.6
20260905170335 49 46 0.0 0.0 0.00 0.00 0.18 98 998.6
20260905165844 49 346 0.0 0.0 0.00 0.00 0.18 98 998.4
20260905165337 49 4 0.0 0.0 0.00 0.00 0.18 98 998.4
20260905164829 49 336 0.0 0.0 0.00 0.00 0.18 98 998.4
20260905164354 49 29 0.0 0.0 0.00 0.00 0.18 98 998.4
20260905163846 49 29 0.0 0.0 0.00 0.00 0.18 98 998.4
20260905163343 49 43 0.0 0.0 0.00 0.00 0.18 98 998.4
20260905162832 49 35 0.0 0.0 0.00 0.00 0.18 98 998.4
20260905162346 49 12 0.0 0.0 0.00 0.00 0.18 98 998.4
20260905161833 49 34 0.0 0.0 0.00 0.00 0.18 98 998.4
20260905161347 49 348 0.0 0.0 0.00 0.00 0.18 98 998.2
20260905160834 49 15 0.0 0.0 0.00 0.00 0.18 98 998.2
20260905160332 49 5 0.0 0.0 0.00 0.00 0.18 98 998.2
20260905155857 49 5 0.0 0.0 0.00 0.00 0.18 98 998.1
20260905155352 49 5 0.9 0.0 0.00 0.00 0.18 98 998.1
20260905154844 49 343 0.9 0.0 0.00 0.00 0.18 98 998.1
20260905154336 49 357 0.9 0.0 0.00 0.00 0.18 98 997.9
20260905153828 50 326 0.0 0.0 0.00 0.00 0.18 98 997.9
20260905153347 50 123 0.0 0.0 0.00 0.00 0.18 98 997.9
20260905152836 50 27 0.9 0.0 0.00 0.00 0.18 98 997.7
20260905152400 50 8 0.9 0.0 0.00 0.00 0.17 98 997.7
20260905151840 50 34 0.0 0.0 0.00 0.00 0.17 98 997.7
20260905151331 50 58 0.0 0.0 0.00 0.00 0.17 98 997.6
20260905150854 50 32 0.0 0.0 0.00 0.00 0.17 98 997.6
20260905150356 50 49 0.0 0.0 0.00 0.00 0.17 98 997.6
20260905145850 50 8 0.9 0.0 0.00 0.00 0.17 98 997.5
20260905145342 50 28 0.9 0.0 0.00 0.00 0.17 98 997.5
20260905144834 50 343 0.9 0.0 0.00 0.00 0.17 98 997.5
20260905144348 50 32 0.9 0.0 0.00 0.00 0.17 98 997.3
20260905143839 50 293 0.0 0.0 0.00 0.00 0.17 98 997.3
20260905143333 50 27 0.0 0.0 0.00 0.00 0.17 98 997.3
20260905142839 50 17 0.0 0.0 0.00 0.00 0.17 98 997.2
20260905142335 50 346 0.0 0.0 0.00 0.00 0.17 98 997.2
20260905141859 50 343 0.0 0.0 0.00 0.00 0.17 98 997.2
20260905141352 50 29 0.0 0.0 0.00 0.00 0.17 98 997.1
20260905140843 50 18 0.0 0.0 0.00 0.00 0.17 98 997.1
20260905140338 50 28 0.9 0.0 0.00 0.00 0.17 98 997.1
20260905135831 50 298 0.0 0.0 0.00 0.00 0.17 98 996.9
20260905135344 50 340 0.9 0.0 0.00 0.00 0.17 98 996.9
20260905134836 50 344 0.9 0.0 0.00 0.00 0.17 98 996.9
20260905134329 50 12 0.9 0.0 0.00 0.00 0.16 98 996.8
20260905133851 50 31 0.9 0.0 0.00 0.00 0.16 98 996.8
20260905133346 50 8 0.9 0.0 0.00 0.00 0.16 98 996.8
20260905132837 50 8 0.9 0.0 0.00 0.00 0.16 98 996.7
20260905132333 50 77 0.9 0.0 0.00 0.00 0.16 98 996.7
20260905131847 50 67 0.9 0.0 0.00 0.00 0.16 98 996.7
20260905131347 50 336 0.9 0.0 0.00 0.00 0.16 98 996.5
20260905130839 50 35 0.0 0.0 0.00 0.00 0.16 98 996.5
20260905130334 50 159 0.0 0.0 0.00 0.00 0.16 98 996.5
20260905125856 50 193 0.0 0.0 0.00 0.00 0.16 98 996.4
20260905125351 50 317 0.0 0.0 0.00 0.00 0.16 98 996.4
20260905124843 50 348 0.9 0.0 0.00 0.00 0.16 98 996.4
20260905124332 50 22 0.9 0.0 0.00 0.00 0.16 98 996.4
20260905123842 50 285 0.0 0.0 0.00 0.00 0.16 98 996.4
20260905123337 50 27 0.0 0.0 0.00 0.00 0.16 98 996.4
20260905122847 50 358 0.0 0.0 0.00 0.00 0.16 98 996.3
20260905122340 50 27 0.9 0.0 0.00 0.00 0.16 98 996.3
20260905121832 50 75 0.0 0.0 0.00 0.00 0.16 98 996.3
20260905121356 50 25 0.9 0.0 0.00 0.00 0.16 98 996.1
20260905120854 50 358 0.9 0.0 0.00 0.00 0.16 98 996.1
20260905120353 50 4 0.9 0.0 0.00 0.00 0.16 98 996.1
20260905115842 50 34 0.9 0.0 0.00 0.00 0.16 98 995.9
20260905115331 50 320 0.0 0.0 0.00 0.00 0.16 98 995.9
20260905114846 50 350 0.9 0.0 0.00 0.00 0.16 98 995.9
20260905114339 50 21 0.9 0.0 0.00 0.00 0.16 98 995.8
20260905113834 51 15 0.9 0.0 0.00 0.00 0.16 98 995.8
20260905113329 51 353 0.0 0.0 0.00 0.00 0.16 98 995.8
20260905112853 51 347 0.0 0.0 0.00 0.00 0.16 98 995.6
20260905112348 51 55 0.9 0.0 0.00 0.00 0.15 98 995.6
20260905111844 51 59 0.9 0.0 0.00 0.00 0.15 98 995.6
20260905111335 51 63 0.9 0.0 0.00 0.00 0.15 98 995.4
20260905110832 51 52 0.0 0.0 0.00 0.00 0.15 98 995.4
20260905110346 52 27 0.9 0.0 0.00 0.00 0.15 98 995.4
20260905105835 52 28 0.9 0.0 0.00 0.00 0.15 98 995.2
20260905105349 52 353 0.9 0.0 0.00 0.00 0.15 97 995.2
20260905104840 52 19 0.0 0.0 0.00 0.00 0.15 98 995.2
20260905104336 52 344 0.9 0.0 0.00 0.00 0.15 98 994.9
20260905103853 52 35 0.9 0.0 0.00 0.00 0.15 98 994.9
20260905103348 52 4 1.7 0.0 0.00 0.00 0.15 98 994.9
20260905102838 52 15 0.9 0.0 0.00 0.00 0.15 98 994.8
20260905102331 52 274 0.9 0.0 0.00 0.00 0.15 98 994.8
20260905101847 52 28 0.0 0.0 0.00 0.00 0.15 98 994.8
20260905101341 52 41 0.9 0.0 0.00 0.00 0.15 98 994.7
20260905100832 52 35 0.9 0.0 0.00 0.00 0.15 98 994.7
20260905100348 52 31 0.9 0.0 0.00 0.00 0.15 98 994.7
20260905095838 52 25 0.9 0.0 0.00 0.00 0.15 98 994.4
20260905095330 52 80 0.9 0.0 0.00 0.00 0.15 98 994.4
20260905094834 52 27 0.9 0.0 0.00 0.00 0.15 98 994.4
20260905094329 53 17 0.0 0.0 0.00 0.00 0.15 98 994.3
20260905093844 52 63 0.0 0.0 0.00 0.00 0.15 98 994.3
20260905093342 52 11 0.9 0.0 0.00 0.00 0.15 98 994.3
20260905092831 52 39 0.0 0.0 0.00 0.00 0.15 98 994.2
20260905092331 52 17 0.0 0.0 0.00 0.00 0.15 98 994.2
20260905091841 52 357 0.9 0.0 0.00 0.00 0.15 98 994.2